Location: Cerezo de Arriba
(41.2389°N, 3.5585°W)
Time: 02:15:28
(UTC+00:00)

Lacrosse 5 rocket - Pass Details

Date: 19 May 2025
Orbit: 419 x 515 km, 57.0° (Epoch: 24 June)

Event Time Altitude Azimuth Distance (km) Brightness Sun altitude
Rises 21:24:06 0° 319° (NW) 2,478 6.4 -17.6°
Reaches altitude 10° 21:26:20 10° 326° (NW) 1,584 4.9 -17.9°
Maximum altitude 21:29:44 44° 40° (NE) 615 1.6 -18.3°
Enters shadow 21:30:29 38° 77° (ENE) 688 1.6 -18.4°
